Time,TemperatureF,DewpointF,PressureIn,WindDirection,WindDirectionDegrees,WindSpeedMPH,WindSpeedGustMPH,Humidity,HourlyPrecipIn,Conditions,Clouds,dailyrainin,SoftwareType,DateUTC
2013-06-10 00:12:00,74.0,67.0,29.87,South,179,0.0,0.0,78,0.00,,,0.00,weatherlink.com 1.10,2013-06-10 05:12:00,
2013-06-10 00:27:00,73.7,67.0,29.87,South,180,0.0,0.0,79,0.00,,,0.00,weatherlink.com 1.10,2013-06-10 05:27:00,
2013-06-10 00:43:00,73.2,66.0,29.87,SSW,194,0.0,0.0,79,0.00,,,0.00,weatherlink.com 1.10,2013-06-10 05:43:00,
2013-06-10 00:58:00,72.9,66.0,29.86,SSW,194,0.0,0.0,80,0.00,,,0.00,weatherlink.com 1.10,2013-06-10 05:58:00,
2013-06-10 01:13:00,73.2,66.0,29.86,South,190,0.0,0.0,79,0.00,,,0.00,weatherlink.com 1.10,2013-06-10 06:13:00,
2013-06-10 01:28:00,73.6,67.0,29.86,SSW,203,1.0,7.0,79,0.00,,,0.00,weatherlink.com 1.10,2013-06-10 06:28:00,
2013-06-10 01:43:00,73.1,67.0,29.86,South,185,0.0,1.0,80,0.00,,,0.00,weatherlink.com 1.10,2013-06-10 06:43:00,
2013-06-10 01:58:00,72.7,66.0,29.86,SSW,197,0.0,0.0,80,0.00,,,0.00,weatherlink.com 1.10,2013-06-10 06:58:00,
2013-06-10 02:13:00,72.5,66.0,29.85,SSW,213,0.0,4.0,81,0.00,,,0.00,weatherlink.com 1.10,2013-06-10 07:13:00,
2013-06-10 02:28:00,72.3,66.0,29.85,SSW,213,0.0,0.0,81,0.00,,,0.00,weatherlink.com 1.10,2013-06-10 07:28:00,
2013-06-10 02:43:00,71.9,66.0,29.85,SSW,213,0.0,0.0,82,0.00,,,0.00,weatherlink.com 1.10,2013-06-10 07:43:00,
2013-06-10 02:58:00,71.4,66.0,29.85,SSW,196,0.0,1.0,83,0.00,,,0.00,weatherlink.com 1.10,2013-06-10 07:58:00,
2013-06-10 03:13:00,71.6,66.0,29.84,South,190,5.0,8.0,83,0.00,,,0.00,weatherlink.com 1.10,2013-06-10 08:13:00,
2013-06-10 03:28:00,71.2,66.0,29.85,SSW,213,0.0,5.0,84,0.00,,,0.00,weatherlink.com 1.10,2013-06-10 08:28:00,
2013-06-10 03:43:00,71.0,66.0,29.85,SSW,213,0.0,0.0,85,0.00,,,0.00,weatherlink.com 1.10,2013-06-10 08:43:00,
2013-06-10 03:58:00,71.1,66.0,29.85,SW,221,0.0,3.0,85,0.00,,,0.00,weatherlink.com 1.10,2013-06-10 08:58:00,
2013-06-10 04:13:00,70.9,67.0,29.85,SW,217,0.0,0.0,86,0.00,,,0.00,weatherlink.com 1.10,2013-06-10 09:13:00,
2013-06-10 04:28:00,70.8,67.0,29.86,SW,217,0.0,0.0,86,0.00,,,0.00,weatherlink.com 1.10,2013-06-10 09:28:00,
2013-06-10 04:43:00,70.6,66.0,29.85,SSW,213,1.0,1.0,86,0.00,,,0.00,weatherlink.com 1.10,2013-06-10 09:43:00,
2013-06-10 04:58:00,70.4,66.0,29.85,SSW,202,2.0,7.0,87,0.00,,,0.00,weatherlink.com 1.10,2013-06-10 09:58:00,
2013-06-10 05:13:00,70.8,67.0,29.86,SW,218,0.0,8.0,86,0.00,,,0.00,weatherlink.com 1.10,2013-06-10 10:13:00,
2013-06-10 05:28:00,70.5,67.0,29.86,SW,225,0.0,5.0,87,0.00,,,0.00,weatherlink.com 1.10,2013-06-10 10:28:00,
2013-06-10 05:43:00,70.2,67.0,29.86,SW,223,0.0,5.0,88,0.00,,,0.00,weatherlink.com 1.10,2013-06-10 10:43:00,
2013-06-10 05:58:00,69.9,66.0,29.87,SSW,208,3.0,7.0,88,0.00,,,0.00,weatherlink.com 1.10,2013-06-10 10:58:00,
2013-06-10 06:13:00,69.5,66.0,29.87,SW,221,0.0,4.0,89,0.00,,,0.00,weatherlink.com 1.10,2013-06-10 11:13:00,
2013-06-10 06:28:00,69.2,66.0,29.88,SW,232,4.0,5.0,90,0.00,,,0.00,weatherlink.com 1.10,2013-06-10 11:28:00,
2013-06-10 06:43:00,69.2,66.0,29.88,SW,224,0.0,0.0,90,0.00,,,0.00,weatherlink.com 1.10,2013-06-10 11:43:00,
2013-06-10 06:58:00,69.3,66.0,29.88,SW,228,0.0,2.0,90,0.00,,,0.00,weatherlink.com 1.10,2013-06-10 11:58:00,
2013-06-10 07:13:00,69.5,67.0,29.88,SW,235,0.0,1.0,90,0.00,,,0.00,weatherlink.com 1.10,2013-06-10 12:13:00,
2013-06-10 07:28:00,70.4,67.0,29.89,SW,226,0.0,5.0,90,0.00,,,0.00,weatherlink.com 1.10,2013-06-10 12:28:00,
2013-06-10 07:43:00,71.3,68.0,29.89,SW,221,0.0,1.0,88,0.00,,,0.00,weatherlink.com 1.10,2013-06-10 12:43:00,
2013-06-10 07:58:00,72.2,68.0,29.89,SW,236,6.0,7.0,87,0.00,,,0.00,weatherlink.com 1.10,2013-06-10 12:58:00,
2013-06-10 08:13:00,73.6,69.0,29.89,SSW,209,4.0,11.0,85,0.00,,,0.00,weatherlink.com 1.10,2013-06-10 13:13:00,
2013-06-10 08:28:00,74.5,69.0,29.89,SW,232,6.0,14.0,83,0.00,,,0.00,weatherlink.com 1.10,2013-06-10 13:28:00,
2013-06-10 08:43:00,75.5,70.0,29.89,SW,225,0.0,9.0,82,0.00,,,0.00,weatherlink.com 1.10,2013-06-10 13:43:00,
2013-06-10 08:58:00,75.8,69.0,29.90,SW,226,8.0,13.0,80,0.00,,,0.00,weatherlink.com 1.10,2013-06-10 13:58:00,
2013-06-10 09:13:00,76.5,70.0,29.91,WSW,247,8.0,13.0,80,0.00,,,0.00,weatherlink.com 1.10,2013-06-10 14:13:00,
2013-06-10 09:28:00,77.3,70.0,29.91,WSW,237,10.0,13.0,77,0.00,,,0.00,weatherlink.com 1.10,2013-06-10 14:28:00,
2013-06-10 09:43:00,78.2,70.0,29.91,WSW,241,1.0,14.0,75,0.00,,,0.00,weatherlink.com 1.10,2013-06-10 14:43:00,
2013-06-10 09:58:00,79.0,70.0,29.90,SW,229,10.0,12.0,73,0.00,,,0.00,weatherlink.com 1.10,2013-06-10 14:58:00,
2013-06-10 10:14:00,80.1,70.0,29.90,SSW,203,7.0,12.0,72,0.00,,,0.00,weatherlink.com 1.10,2013-06-10 15:14:00,
2013-06-10 10:29:00,80.6,70.0,29.90,SSW,212,8.0,15.0,71,0.00,,,0.00,weatherlink.com 1.10,2013-06-10 15:29:00,
2013-06-10 10:44:00,81.3,70.0,29.90,SW,224,15.0,15.0,69,0.00,,,0.00,weatherlink.com 1.10,2013-06-10 15:44:00,
2013-06-10 10:59:00,81.9,71.0,29.90,WSW,242,5.0,16.0,69,0.00,,,0.00,weatherlink.com 1.10,2013-06-10 15:59:00,
2013-06-10 11:14:00,82.3,70.0,29.90,SW,232,0.0,16.0,67,0.00,,,0.00,weatherlink.com 1.10,2013-06-10 16:14:00,
2013-06-10 11:29:00,83.5,72.0,29.90,SW,220,3.0,17.0,68,0.00,,,0.00,weatherlink.com 1.10,2013-06-10 16:29:00,
2013-06-10 11:44:00,83.8,72.0,29.90,SSW,207,8.0,14.0,67,0.00,,,0.00,weatherlink.com 1.10,2013-06-10 16:44:00,
2013-06-10 11:59:00,84.5,71.0,29.90,WSW,252,9.0,14.0,65,0.00,,,0.00,weatherlink.com 1.10,2013-06-10 16:59:00,
2013-06-10 12:14:00,84.8,71.0,29.90,SW,225,3.0,15.0,64,0.00,,,0.00,weatherlink.com 1.10,2013-06-10 17:14:00,
2013-06-10 12:29:00,85.3,71.0,29.89,WSW,253,11.0,17.0,62,0.00,,,0.00,weatherlink.com 1.10,2013-06-10 17:29:00,
2013-06-10 12:44:00,86.3,72.0,29.89,SW,225,1.0,14.0,62,0.00,,,0.00,weatherlink.com 1.10,2013-06-10 17:44:00,
2013-06-10 12:59:00,86.9,71.0,29.89,SW,232,7.0,15.0,59,0.00,,,0.00,weatherlink.com 1.10,2013-06-10 17:59:00,
2013-06-10 13:14:00,87.3,71.0,29.88,SW,217,7.0,15.0,59,0.00,,,0.00,weatherlink.com 1.10,2013-06-10 18:14:00,
2013-06-10 13:29:00,87.6,69.0,29.88,WSW,241,8.0,15.0,55,0.00,,,0.00,weatherlink.com 1.10,2013-06-10 18:29:00,
2013-06-10 13:44:00,88.1,71.0,29.88,SW,229,10.0,15.0,57,0.00,,,0.00,weatherlink.com 1.10,2013-06-10 18:44:00,
2013-06-10 13:59:00,88.4,71.0,29.88,SW,231,12.0,13.0,56,0.00,,,0.00,weatherlink.com 1.10,2013-06-10 18:59:00,
2013-06-10 14:14:00,88.8,70.0,29.87,SW,216,0.0,13.0,54,0.00,,,0.00,weatherlink.com 1.10,2013-06-10 19:14:00,
2013-06-10 14:29:00,89.1,70.0,29.87,SW,217,7.0,16.0,54,0.00,,,0.00,weatherlink.com 1.10,2013-06-10 19:29:00,
2013-06-10 14:44:00,89.8,71.0,29.86,SSW,193,7.0,14.0,54,0.00,,,0.00,weatherlink.com 1.10,2013-06-10 19:44:00,
2013-06-10 14:59:00,90.1,71.0,29.86,SW,223,2.0,13.0,54,0.00,,,0.00,weatherlink.com 1.10,2013-06-10 19:59:00,
2013-06-10 15:15:00,90.3,71.0,29.86,South,184,7.0,12.0,53,0.00,,,0.00,weatherlink.com 1.10,2013-06-10 20:15:00,
2013-06-10 15:29:00,90.6,71.0,29.86,SW,233,8.0,16.0,52,0.00,,,0.00,weatherlink.com 1.10,2013-06-10 20:29:00,
2013-06-10 15:44:00,90.7,72.0,29.86,SW,231,3.0,15.0,54,0.00,,,0.00,weatherlink.com 1.10,2013-06-10 20:44:00,
2013-06-10 15:59:00,91.4,71.0,29.85,SW,234,6.0,10.0,51,0.00,,,0.00,weatherlink.com 1.10,2013-06-10 20:59:00,
2013-06-10 16:14:00,91.5,71.0,29.85,SSW,201,6.0,15.0,51,0.00,,,0.00,weatherlink.com 1.10,2013-06-10 21:14:00,
2013-06-10 16:29:00,91.8,71.0,29.84,SW,223,7.0,12.0,50,0.00,,,0.00,weatherlink.com 1.10,2013-06-10 21:29:00,
2013-06-10 16:44:00,92.0,71.0,29.84,SSW,196,6.0,12.0,50,0.00,,,0.00,weatherlink.com 1.10,2013-06-10 21:44:00,
2013-06-10 16:59:00,92.0,71.0,29.84,South,180,7.0,12.0,50,0.00,,,0.00,weatherlink.com 1.10,2013-06-10 21:59:00,
2013-06-10 17:14:00,92.2,72.0,29.83,SSW,194,6.0,12.0,52,0.00,,,0.00,weatherlink.com 1.10,2013-06-10 22:14:00,
2013-06-10 17:29:00,92.3,71.0,29.83,SW,216,10.0,12.0,50,0.00,,,0.00,weatherlink.com 1.10,2013-06-10 22:29:00,
2013-06-10 17:44:00,92.4,71.0,29.82,SW,234,7.0,10.0,50,0.00,,,0.00,weatherlink.com 1.10,2013-06-10 22:44:00,
2013-06-10 17:59:00,92.5,72.0,29.82,SSW,208,2.0,8.0,52,0.00,,,0.00,weatherlink.com 1.10,2013-06-10 22:59:00,
2013-06-10 18:14:00,92.6,72.0,29.82,SW,220,3.0,10.0,51,0.00,,,0.00,weatherlink.com 1.10,2013-06-10 23:14:00,
2013-06-10 18:30:00,92.3,71.0,29.81,SSE,163,5.0,8.0,50,0.00,,,0.00,weatherlink.com 1.10,2013-06-10 23:30:00,
2013-06-10 18:45:00,92.0,72.0,29.81,South,171,4.0,7.0,53,0.00,,,0.00,weatherlink.com 1.10,2013-06-10 23:45:00,
2013-06-10 19:00:00,91.4,73.0,29.81,South,174,3.0,6.0,55,0.00,,,0.00,weatherlink.com 1.10,2013-06-11 00:00:00,
2013-06-10 19:15:00,90.8,73.0,29.81,South,187,0.0,5.0,57,0.00,,,0.00,weatherlink.com 1.10,2013-06-11 00:15:00,
2013-06-10 19:30:00,90.2,73.0,29.81,South,185,0.0,4.0,57,0.00,,,0.00,weatherlink.com 1.10,2013-06-11 00:30:00,
2013-06-10 19:45:00,89.4,73.0,29.81,South,170,0.0,4.0,59,0.00,,,0.00,weatherlink.com 1.10,2013-06-11 00:45:00,
2013-06-10 20:00:00,88.4,73.0,29.81,South,178,1.0,6.0,60,0.00,,,0.00,weatherlink.com 1.10,2013-06-11 01:00:00,
2013-06-10 20:15:00,87.5,72.0,29.81,South,177,0.0,7.0,61,0.00,,,0.00,weatherlink.com 1.10,2013-06-11 01:15:00,
2013-06-10 20:30:00,86.4,72.0,29.81,SSW,192,0.0,4.0,62,0.00,,,0.00,weatherlink.com 1.10,2013-06-11 01:30:00,
2013-06-10 20:45:00,85.3,71.0,29.81,South,172,0.0,6.0,63,0.00,,,0.00,weatherlink.com 1.10,2013-06-11 01:45:00,
2013-06-10 21:00:00,84.8,70.0,29.82,South,181,0.0,6.0,62,0.00,,,0.00,weatherlink.com 1.10,2013-06-11 02:00:00,
2013-06-10 21:15:00,84.3,70.0,29.82,South,174,0.0,5.0,62,0.00,,,0.00,weatherlink.com 1.10,2013-06-11 02:15:00,
2013-06-10 21:30:00,84.3,69.0,29.82,South,183,0.0,7.0,60,0.00,,,0.00,weatherlink.com 1.10,2013-06-11 02:30:00,
2013-06-10 21:45:00,84.3,67.0,29.83,South,169,2.0,7.0,57,0.00,,,0.00,weatherlink.com 1.10,2013-06-11 02:45:00,
2013-06-10 22:00:00,84.3,66.0,29.84,South,172,3.0,8.0,55,0.00,,,0.00,weatherlink.com 1.10,2013-06-11 03:00:00,
2013-06-10 22:15:00,84.1,66.0,29.85,SSW,193,2.0,8.0,54,0.00,,,0.00,weatherlink.com 1.10,2013-06-11 03:15:00,
2013-06-10 22:30:00,83.8,65.0,29.86,South,173,0.0,7.0,53,0.00,,,0.00,weatherlink.com 1.10,2013-06-11 03:30:00,
2013-06-10 22:45:00,83.2,65.0,29.86,South,178,0.0,7.0,54,0.00,,,0.00,weatherlink.com 1.10,2013-06-11 03:45:00,
2013-06-10 23:00:00,82.2,65.0,29.86,South,188,0.0,7.0,56,0.00,,,0.00,weatherlink.com 1.10,2013-06-11 04:00:00,
2013-06-10 23:15:00,81.5,65.0,29.86,SSW,208,2.0,6.0,58,0.00,,,0.00,weatherlink.com 1.10,2013-06-11 04:15:00,
2013-06-10 23:30:00,81.4,65.0,29.86,South,180,8.0,12.0,57,0.00,,,0.00,weatherlink.com 1.10,2013-06-11 04:30:00,
2013-06-10 23:45:00,81.2,64.0,29.86,SSW,203,2.0,10.0,56,0.00,,,0.00,weatherlink.com 1.10,2013-06-11 04:45:00,